Regional Weather Roundup
Issued by NWS

Home | Current Version | Previous Version | Graphics & Text | Print | Product List | Glossary On
Versions: 1 2 3 4 5 6 7 8 9 10 11 12 13 14 15 16 17 18 19 20 21 22 23 24 25 26 27 28 29 30 31 32 33 34 35 36 37 38 39 40 41 42 43 44 45 46 47 48 49 50
440
ASUS45 KPSR 072010
RWRAZ

ARIZONA HOURLY REGIONAL WEATHER ROUNDUP
NATIONAL WEATHER SERVICE PHOENIX AZ
100 PM MST SUN FEB 07 2016

NOTE: FAIR INDICATES FEW OR NO CLOUDS BELOW 12,000 FEET WITH NO
SIGNIFICANT WEATHER AND/OR OBSTRUCTIONS TO VISIBILITY.

AZZ001>003-036-072100-
NORTHWEST ARIZONA

CITY           SKY/WX    TMP DP  RH WIND       PRES   REMARKS
BULLHEAD CITY  SUNNY     66  23  19 N37G46    30.24F
KINGMAN        SUNNY     59  21  23 N6        30.34F
$$

AZZ004>008-015-016-018-072100-
NORTH CENTRAL ARIZONA

CITY           SKY/WX    TMP DP  RH WIND       PRES   REMARKS
GRAND CANYON   SUNNY     48  15  26 NE13      30.43F
WILLIAMS       SUNNY     50  18  27 NE15      30.45R
PRESCOTT       SUNNY     59  17  19 VRB6      30.34F
FLAGSTAFF      SUNNY     44  12  27 NE17G28   30.41S
PAYSON         SUNNY     63  14  15 E8G18     30.32F
PAGE           SUNNY     40  24  53 N8        30.49F WCI  34
$$

AZZ009>014-017-072100-
NORTHEAST ARIZONA

CITY           SKY/WX    TMP DP  RH WIND       PRES   REMARKS
WINSLOW        SUNNY     48  20  32 N6        30.43F
SAINT JOHNS    SUNNY     49  15  25 VRB6      30.38F
WINDOW ROCK    SUNNY     51   0  12 N8        30.37F
SHOW LOW       SUNNY     45  19  36 N13       30.41S
$$

AZZ023-072100-
GREATER PHOENIX AREA

CITY           SKY/WX    TMP DP  RH WIND       PRES   REMARKS
PHOENIX        MOSUNNY   73  17  12 NE8       30.15F
BUCKEYE        SUNNY     70  19  14 N3        30.20F
GLENDALE       MOSUNNY   70  23  17 CALM      30.19F
LUKE AFB       SUNNY     72  23  16 VRB6      30.16F
DEER VALLEY    SUNNY     70  19  14 W3        30.17F
SCOTTSDALE     SUNNY     69  16  13 CALM      30.19F
MESA-FALCON    SUNNY    N/A N/A N/A N15       30.16
MESA-GATEWAY   MOSUNNY   68  21  17 CALM      30.17F
CHANDLER       SUNNY     72  18  13 CALM      30.16F
$$

AZZ027-028-072100-
SOUTHWEST MARICOPA COUNTY AND PINAL COUNTY

CITY           SKY/WX    TMP DP  RH WIND       PRES   REMARKS
CASA GRANDE    SUNNY     70  21  16 CALM      30.17F
GILA BEND      FAIR      72  17  12 N9        30.15F
$$

AZZ503-504-507>509-072100-
SOUTHEAST ARIZONA

CITY           SKY/WX    TMP DP  RH WIND       PRES   REMARKS
TUCSON         MOSUNNY   70  12  10 N10       30.18F
DAVIS-MONTHAN  PTSUNNY   69  12  11 N9        30.16F
RYAN FIELD     SUNNY     70  19  14 NW6       30.18F
NOGALES        CLOUDY    68   6   9 CALM      30.18F
SIERRA VISTA   PTSUNNY   62   1   8 SE7       30.25F
DOUGLAS        CLOUDY    61   8  12 SW5       30.23F
SAFFORD        SUNNY     61  11  14 VRB5      30.24F
$$

AZZ020-021-025-026-031-072100-
SOUTHWEST ARIZONA

CITY           SKY/WX    TMP DP  RH WIND       PRES   REMARKS
YUMA           SUNNY     74  22  14 N16G25    30.18F
$$

CAZ031-033-041-043-047-048-061-072100-
SOUTHERN CALIFORNIA

CITY           SKY/WX    TMP DP  RH WIND       PRES   REMARKS
DOWNTOWN L.A.  SUNNY     80  25  13 CALM      30.12F
L.A. AIRPORT   SUNNY     79  22  12 S3        30.11F
SAN DIEGO      MOSUNNY   76  17  11 NW9       30.13F
BURBANK        SUNNY     77  25  14 SE6       30.13F
ONTARIO        SUNNY     80  17   9 VRB3      30.14S
RIVERSIDE      SUNNY     79  17  10 N15G25    30.16F
PALM SPRINGS   SUNNY     80  18  10 CALM      30.24F
EL CENTRO NAS  SUNNY     77  18  11 N3        30.22F
IMPERIAL       SUNNY     76  22  13 NW6       30.19F
BLYTHE         SUNNY     73  23  15 N20       30.22F
NEEDLES        SUNNY     72  21  14 N26G33    30.26F
$$

NVZ020-UTZ003-072100-
SOUTHERN NEVADA-UTAH

CITY           SKY/WX    TMP DP  RH WIND       PRES   REMARKS
LAS VEGAS      SUNNY     63  19  18 NE3       30.34F
SALT LAKE CITY MOSUNNY   38  24  57 W3        30.60F HAZE
$$

NMZ009-TXZ055-072100-
NEW MEXICO-WEST TEXAS

CITY           SKY/WX    TMP DP  RH WIND       PRES   REMARKS
ALBUQUERQUE    MOSUNNY   53  17  24 NW20G28   30.33F
EL PASO        MOSUNNY   61   9  12 VRB3      30.24F
$$


........................KEY........................
SKY/WX - SKY CONDITION/WEATHER
TMP    - TEMPERATURE IN FAHRENHEIT
DP     - DEW POINT IN FAHRENHEIT
RH     - RELATIVE HUMIDITY IN PERCENT
WIND   - DIRECTION AND SPEED IN MILES PER HOUR (MPH)
VRB    - VARIABLE WIND DIRECTION
PRES   - MEAN SEA LEVEL PRESSURE IN INCHES OF MERCURY
         F - FALLING PRESSURE   R - RISING PRESSURE
         S - STEADY PRESSURE
VSB    - VISIBILITY IN MILES
HX     - HEAT INDEX IN FAHRENHEIT
WCI    - WIND CHILL INDEX IN FAHRENHEIT
TC     - TEMPERATURE IN CELSIUS WHICH IS ALSO KNOWN AS
         TEMPERATURE IN CENTIGRADE
AFB    - AIR FORCE BASE
         LUKE AFB IS LUKE AIR FORCE BASE
         DAVIS-MONTHAN IS DAVIS-MONTHAN AIR FORCE BASE
NAS    - NAVAL AIR STATION
         EL CENTRO NAS IS EL CENTRO NAVAL AIR STATION
N/A    - NOT AVAILABLE





USA.gov is the U.S. government's official web portal to all federal, state and local government web resources and services.